{"data":{"norad_id":22787,"intl_designator":"1993-056A","name":"UFO 2 (USA 95)","alt_names":[],"object_type":"PAYLOAD","status":"ACTIVE","operator":null,"country":"US","launch_date":"1993-09-03","launch_site_code":"AFETR","launch_vehicle":null,"mission":null,"orbit_class":"UNKNOWN","rcs_meters":0.003,"size_class":null,"mass_kg":null,"dimensions":null,"purposes":["comms"],"wikipedia_slug":null,"has_3d_model":false,"image_url":null,"decayed_at":null,"tle_current":{"epoch":"2026-05-24T17:36:48.727584Z","epoch_age_seconds":91339,"freshness":"FRESH","line1":"1 22787U 93056A   26144.73389731  .00000116  00000+0  00000+0 0  9993","line2":"2 22787  11.8870   3.6853 0007989   2.2920 169.2662  1.00277887118312","mean_motion":1.00277887,"eccentricity":0.0007989,"inclination_deg":11.887,"raan_deg":3.6853,"arg_perigee_deg":2.292,"mean_anomaly_deg":169.2662,"bstar":0,"rev_number":11831,"period_min":1436.0095162356,"perigee_km":35751.200398001,"apogee_km":35818.568473651,"semimajor_km":42163.021435826,"source":"CELESTRAK","updated_at":"2026-05-25T13:38:13.804970Z"}}}